Home   Weather   India   Jaipur   Past weeks
Flag for India

Past Weather in Jaipur, Rajasthan, India — Yesterday and Last 2 Weeks

Currently: 88 °F. Fog. (Weather station: Jaipur / Sanganer, India). See more current weather

Past Weather in Jaipur — Graph

°F

Jaipur Temperature Yesterday

Maximum temperature yesterday: 97 °F (at 3:00 pm)
Minimum temperature yesterday: 86 °F (at 4:00 am)
Average temperature yesterday: 90 °F

High & Low Weather Summary for the Past Weeks

 TemperatureHumidityPressure
High99 °F (Jul 3, 3:30 pm)94% (Jul 3, 8:30 pm)29.71 "Hg (Jul 3, 8:30 pm)
Low75 °F (Jul 3, 7:30 pm)50% (Jul 3, 3:30 pm)29.42 "Hg (Jul 5, 5:30 pm)
Average86 °F82%29.56 "Hg
* Reported Jul 2 11:30 pm — Jul 18 12:00 am, Jaipur. Weather by CustomWeather, © 2024

Note: Actual official high and low records may vary slightly from our data, if they occured in-between our weather recording intervals... More about our weather records

Jaipur Weather History for the Previous 24 Hours

Scroll right to see more
 ConditionsComfort  
Time TempWeatherWind HumidityBarometerVisibility
12:00 am
Thu, Jul 18
86 °FFog.5 mph79%29.62 "Hg2 mi
11:30 pm
Wed, Jul 17
88 °FFog.5 mph75%29.62 "Hg2 mi
11:00 pm90 °FFog.7 mph75%29.62 "Hg2 mi
10:30 pm90 °FFog.7 mph75%29.62 "Hg2 mi
10:00 pm90 °FPassing clouds.6 mph75%29.59 "Hg2 mi
9:30 pm90 °FPassing clouds.7 mph75%29.59 "Hg2 mi
9:00 pm90 °FPassing clouds.7 mph75%29.56 "Hg2 mi
8:30 pm91 °FPassing clouds.9 mph67%29.56 "Hg2 mi
7:30 pm91 °FScattered clouds.9 mph67%29.53 "Hg2 mi
6:30 pm93 °FScattered clouds.9 mph67%29.50 "Hg2 mi
6:00 pm95 °FScattered clouds.9 mph63%29.50 "Hg2 mi
5:30 pm95 °FScattered clouds.9 mph63%29.53 "Hg2 mi
4:30 pm95 °FScattered clouds.10 mph63%29.53 "Hg2 mi
4:00 pm97 °FBroken clouds.7 mph60%29.53 "Hg2 mi
3:30 pm97 °FBroken clouds.9 mph63%29.53 "Hg2 mi
3:00 pm97 °FPartly sunny.7 mph60%29.56 "Hg2 mi
2:30 pm95 °FPartly sunny.9 mph63%29.56 "Hg2 mi
2:00 pm95 °FScattered clouds.10 mph63%29.59 "Hg3 mi
1:30 pm95 °FPartly sunny.8 mph67%29.59 "Hg3 mi
1:00 pm95 °FScattered clouds.7 mph67%29.62 "Hg2 mi
12:30 pm95 °FScattered clouds.7 mph67%29.62 "Hg2 mi
12:00 pm93 °FScattered clouds.6 mph71%29.62 "Hg2 mi
11:30 am93 °FHaze.7 mph71%29.65 "Hg2 mi
11:00 am91 °FScattered clouds.6 mph80%29.65 "Hg2 mi
10:30 am91 °FScattered clouds.9 mph80%29.65 "Hg2 mi
10:00 am88 °FScattered clouds.7 mph84%29.65 "Hg2 mi
9:30 am88 °FScattered clouds.9 mph84%29.65 "Hg2 mi
9:00 am90 °FScattered clouds.9 mph79%29.65 "Hg2 mi
8:30 am90 °FScattered clouds.8 mph79%29.65 "Hg2 mi
7:30 am88 °FScattered clouds.7 mph84%29.65 "Hg2 mi
7:00 am86 °FFog.8 mph84%29.62 "Hg2 mi
6:30 am86 °FFog.7 mph84%29.62 "Hg2 mi
6:00 am86 °FFog.5 mph84%29.59 "Hg2 mi
5:30 am86 °FFog.5 mph84%29.59 "Hg2 mi
5:00 am86 °FFog.7 mph84%29.56 "Hg2 mi
4:30 am86 °FFog.7 mph84%29.56 "Hg2 mi
4:00 am86 °FFog.7 mph84%29.56 "Hg2 mi
3:30 am88 °FFog.8 mph79%29.56 "Hg2 mi
3:00 am88 °FFog.7 mph79%29.56 "Hg2 mi
2:30 am88 °FFog.6 mph79%29.56 "Hg2 mi
2:00 am88 °FFog.6 mph79%29.56 "Hg2 mi
1:30 am88 °FHaze.7 mph79%29.56 "Hg2 mi
1:00 am88 °FHaze.6 mph79%29.59 "Hg2 mi
Weather by CustomWeather, © 2024

See weather overview